Volver al catálogo

FORMOSAT-5

ActivoCienciaSSO
NORAD 42920·PAYLOAD·🇹🇼 Taiwan

Lanzado Aug 24, 2017 desde Vandenberg Space Force Base

Loading…

Próximos Pases (próximas 24 horas)

TLE

ActualizadoSource: Space-Track

Época: Sep 14, 2026, 15:15 UTC

1 42920U 17049A   26257.63604093  .00000091  00000-0  34140-4 0  9997
2 42920  98.2188 330.9282 0011839 162.4351 197.7256 14.50907823479642

Sigue FORMOSAT-5 en tiempo real con AllMySat

Download on the App Store